Tracking 26935 objects as of 5-Feb-2023
HD Live streaming from Space Station
objects crossing your sky now

STARLINK-1624

Track STARLINK-1624 now!
10-day predictions
STARLINK-1624 is classified as:


NORAD ID: 46130
Int'l Code: 2020-057P
Perigee: 553.0 km
Apogee: 555.7 km
Inclination: 53.1 °
Period: 95.6 minutes
Semi major axis: 6925 km
RCS: Unknown
Launch date: August 18, 2020
Source: United States (US)
Launch site: AIR FORCE EASTERN TEST RANGE (AFETR)
Your satellite tracking list
Your tracking list is empty




NASA's NSSDC Master Catalog

Two Line Element Set (TLE):
1 46130U 20057P   23035.72663583  .00000643  00000-0  62054-4 0  9995
2 46130  53.0558 304.7292 0001959 102.3743 257.7465 15.06399327137128
Source of the keplerian elements: AFSPC